Location: Asheville, NC
(35.6000°N, 82.5500°W)
Time: 05:38:28
(UTC-05:00)

Vanguard 2 Rocket - Pass Details

Date: 14 February 2018
Orbit: 555 x 3327 km, 32.9° (Epoch: 17 February)

Event Time Altitude Azimuth Distance (km) Brightness Sun altitude
Exits shadow 03:54:44 70° 251° (WSW) 3,467 9.3 -41.7°
Maximum altitude 03:58:15 82° 185° (S) 3,319 9.4 -41.0°
Drops below altitude 10° 04:16:18 10° 101° (E) 5,424 11.5 -37.4°
Sets 04:19:51 0° 100° (E) 6,155 12.0 -36.7°
